#timestamp,LO_Frequency,Hit,StdDev 
1597537075.8,286047027.0,P
1597537095.6,286047027.0,P
1597537115.5,286047027.1,P
1597537135.3,286047029.7,Y
1597537155.1,286047001.4,P
1597537175.9,286047001.5,N
1597537195.7,286047003.5,N
1597537215.6,286047002.9,N
1597537235.4,286047005.8,N
1597537255.2,286047003.7,N
1597537275.1,286047003.8,N
1597537276.0,286047003.8,N
1597537295.8,286047001.5,N
1597537315.6,286047003.6,N
1597537335.5,286047004.3,N
1597537355.3,286047001.4,N
1597537375.2,286047003.8,N
1597537395.9,286047003.1,N
1597537415.7,286047003.5,N
1597537435.6,286047005.2,N
1597537455.4,286047004.8,N
1597537475.2,286047004.9,N
1597537495.1,286047004.6,N
1597537496.0,286047004.6,N
1597537515.8,286047007.6,N
1597537535.7,286047006.2,N
1597537555.5,286047006.1,N
1597537575.3,286047006.1,N
1597537595.2,286047004.7,N
1597537615.0,286047007.3,N
1597537615.9,286047007.3,N
1597537635.8,286047006.8,N
1597537655.6,286047008.9,N
1597537675.4,286047006.5,N
1597537695.3,286047008.5,Y
1597537715.1,286047003.1,P
1597537735.8,286047003.3,P
1597537755.7,286047004.7,P
1597537775.5,286047005.2,Y
1597537795.4,286047004.4,P
1597537815.2,286047004.0,P
1597537835.0,286047004.2,P
1597537835.9,286047004.2,Y
1597537855.8,286046998.1,P
1597537875.6,286047000.8,N
1597537895.5,286046999.8,N
1597537915.3,286046999.8,N
1597537935.1,286047002.4,N
1597537955.9,286046999.8,N
1597537975.7,286046999.9,N
1597537995.5,286047002.6,N
1597538015.4,286047001.8,N
1597538035.2,286047001.8,N
1597538055.1,286047002.1,N
1597538056.0,286047002.1,N
1597538075.8,286047002.2,N
1597538095.6,286047003.9,N
1597538115.5,286047003.3,N
1597538135.3,286047005.9,Y
1597538155.1,286047005.1,P
1597538175.9,286047005.6,P
1597538195.7,286047005.7,P
1597538215.6,286047005.4,Y
1597538235.4,286047001.0,P
1597538255.2,286046999.9,N
1597538275.1,286047000.7,N
1597538276.0,286047000.7,N
1597538295.8,286047002.6,N
1597538315.7,286047002.0,N
1597538335.5,286047001.4,N
1597538355.3,286047002.3,N
1597538375.2,286047001.6,N
1597538395.9,286047002.6,N
1597538415.7,286047002.0,N
1597538435.6,286047001.6,N
1597538455.4,286047001.3,N
1597538475.3,286047003.9,Y
1597538495.1,286047001.6,P
1597538496.0,286047001.6,P
1597538515.8,286047004.3,P
1597538535.7,286047003.7,Y
1597538555.5,286047001.8,P
1597538575.3,286047002.3,P
1597538595.2,286047001.9,P
1597538615.0,286047001.9,Y
1597538615.9,286047001.9,P
1597538635.8,286047000.9,P
1597538655.6,286047000.5,N
1597538675.4,286047002.7,Y
1597538695.3,286046999.8,P
1597538715.1,286046999.7,N
1597538735.9,286047002.2,N
1597538755.7,286047002.5,N
1597538775.5,286047001.4,N
1597538795.4,286047004.3,Y
1597538815.2,286047005.8,P
1597538835.0,286047005.1,N
1597538835.9,286047005.1,N
1597538855.8,286047004.9,N
1597538875.6,286047007.4,Y
1597538895.5,286047003.8,P
1597538915.3,286047006.0,P
1597538935.1,286047005.1,P
1597538955.9,286047005.1,Y
1597538975.7,286046999.7,P
1597538995.6,286047000.1,N
1597539015.4,286047000.5,N
1597539035.2,286047000.2,N
1597539055.1,286047000.1,N
1597539056.0,286047000.1,N
1597539075.8,286046999.9,N
1597539095.6,286047002.8,N
1597539115.5,286047002.3,N
1597539135.3,286047000.1,N
1597539155.2,286046998.3,N
1597539175.9,286047001.2,N
1597539195.7,286047001.1,N
1597539215.6,286047001.1,N
1597539235.4,286047001.2,N
1597539255.2,286046998.6,N
1597539275.1,286046998.5,N
1597539276.0,286046998.5,N
1597539295.8,286047001.0,N
1597539315.7,286047000.3,N
1597539335.5,286047000.6,N
1597539355.3,286047002.8,N
1597539375.2,286047002.5,N
1597539395.9,286047001.9,N
1597539415.7,286047001.4,N
1597539435.6,286047002.1,N
1597539455.4,286047004.2,N
1597539475.2,286047003.9,N
1597539495.1,286047003.8,N
1597539496.0,286047003.8,N
1597539515.8,286047003.4,N
1597539535.7,286047003.2,N
1597539555.5,286047002.9,N
1597539575.3,286047005.2,Y
1597539595.2,286047003.1,P
